Weather Roundup
Issued by NWS

Home | Current Version | Previous Version | Graphics & Text | Print | Product List | Glossary Off
Versions: 1 2 3 4 5 6 7 8 9 10 11 12 13 14 15 16 17 18 19 20 21 22 23 24 25 26 27 28 29 30 31 32 33 34 35 36 37 38 39 40 41 42 43 44 45 46 47 48 49 50

000
NZUS93 KARX 201059
HRRWXR

CURRENT HOURLY OBSERVATIONS ACROSS
MUCH OF THE UPPER MISSISSIPPI VALLEY
NATIONAL WEATHER SERVICE LA CROSSE WI
600 AM CDT MON OCT 20 2014


...SOUTHEAST MINNESOTA...


CITY           SKY/WX    TMP DP  RH WIND       PRES   REMARKS
ROCHESTER      CLEAR     42  39  89 W6        29.94R
ROCHESTER/MAYO FAIR      47  39  74 W5        29.94R
WINONA         CLEAR     45  41  87 NW6       29.92R
AUSTIN         CLEAR     45  39  81 NW3       29.94S
ALBERT LEA     CLEAR     45  41  87 CALM      29.96R
DODGE CENTER   PTCLDY    46  43  87 W7        29.94R
PRESTON        CLEAR     42  39  88 W6        29.94R
OWATONNA       CLEAR     39  37  93 W3        29.95R
FARIBAULT      CLEAR     43  39  87 CALM      29.95R
$$

...ELSEWHERE IN MINNESOTA...


CITY           SKY/WX    TMP DP  RH WIND       PRES   REMARKS
MINNEAPOLIS    CLEAR     47  41  80 W3        29.94R
INTNL FALLS    CLOUDY    41  40  96 NW8       29.93R
DULUTH         CLEAR     45  40  82 NW8       29.88R
RED WING       CLEAR     43  41  93 W5        29.92R
REDWOOD FALLS  CLEAR     42  37  82 W8        29.99R
MANKATO        CLEAR     46  37  71 W7        29.97R
WORTHINGTON    CLEAR     39  36  87 W5        30.03R
FAIRMONT       CLEAR     45  36  70 NW7       29.98R
$$

...SOUTHWEST WISCONSIN...


CITY           SKY/WX    TMP DP  RH WIND       PRES   REMARKS
LA CROSSE      CLEAR     43  40  89 CALM      29.90R
PRAIRIE DU CHI CLEAR     48  41  76 W8        29.88R
BOSCOBEL       CLEAR     45  41  86 CALM      29.88R
LONE ROCK      NOT AVBL
PLATTEVILLE    CLEAR     46  43  88 CALM      29.86R
FORT MC COY    CLEAR     48  41  77 NW6       29.88R
VIROQUA        FAIR      48  42  80 NW10      29.87R
WIS DELLS      PTCLDY    49  42  77 NW8       29.82R
$$

...ELSEWHERE IN WISCONSIN...


CITY           SKY/WX    TMP DP  RH WIND       PRES   REMARKS
MILWAUKEE      CLEAR     49  42  77 W7        29.77F
MADISON        PTCLDY    46  42  86 NW3       29.81R
GREEN BAY      CLOUDY    41  40  96 CALM      29.78R
EAU CLAIRE     NOT AVBL
BLACK RVR FLS  FAIR      40  40  99 CALM      29.87R
MEDFORD        CLEAR     39  38  96 W5        29.85R
WAUSAU         CLEAR     44  41  89 NW5       29.82R
WIS RAPIDS     CLEAR     47  42  83 NW9       29.85R
MARSHFIELD     CLEAR     43  40  89 NW12      29.85R
RICE LAKE      MOCLDY    42  39  88 W6        29.91R
$$

...NORTHEAST IOWA...


CITY           SKY/WX    TMP DP  RH WIND       PRES   REMARKS
DECORAH        CLEAR     46  43  87 CALM      29.90S
MASON CITY     CLEAR     40  38  93 W6        29.98R
CHARLES CITY   CLEAR     46  41  81 NW8       29.95R
OELWEIN        NOT AVBL
$$

...ELSEWHERE IN IOWA...


CITY           SKY/WX    TMP DP  RH WIND       PRES   REMARKS
DES MOINES     CLEAR     48  43  82 N7        29.98R
IOWA CITY      CLEAR     50  44  80 NW10      29.92R
FORT DODGE     CLEAR     43  37  81 CALM      30.00R
$$

...NORTHERN ILLINOIS...


CITY           SKY/WX    TMP DP  RH WIND       PRES   REMARKS
CHICAGO-OHARE  MOCLDY    49  44  83 SW8       29.80F
CHICAGO-MIDWAY MOCLDY    51  45  79 SW7       29.81F
MOLINE         CLEAR     48  44  86 W7        29.87R
ROCKFORD       CLEAR     46  41  82 W3        29.83R
PEORIA         CLEAR     49  44  83 SW3       29.88S
$$

NOTE: "FAIR" INDICATES FEW OR NO CLOUDS BELOW 12,000 FEET WITH NO
SIGNIFICANT WEATHER AND/OR OBSTRUCTIONS TO VISIBILITY. WIND
SPEEDS ARE IN MILES-PER-HOUR.



USA.gov is the U.S. government's official web portal to all federal, state and local government web resources and services.